YAM-2 (48911 NORAD) Tracking and Keplerian Element Data

This shows tracking and keplerian element data for the satellite.

Feedback or suggestion? Click here.




ElementValue
Catalog48911
NameYAM-2
Epoch Orbit1383
Epoch Day268.31640237
Epoch Year2021
RAAN35.8245
Inclination97.5249
Eccentricity0.0010238
Argument of Perigee296.446
Mean Anonmoly63.572
Mean Motion15.12695058
Decay Rate1.688E-05
L11 48911U 21059AJ 21268.31640237 .00001688 00000-0 10009-3 0 9991
L22 48911 97.5249 35.8245 0010238 296.4460 63.5720 15.12695058 13833

Live tracking and technical data element details for YAM-2 (NORAD 48911). YAM-2 can be tracked NOW for your location showing map with azimuth and elevation plus other details from your city location.

Track the satellite on the map from your city or location and see movement details for azimuth, elevation, latitude, longitude, range, height, and movement on the map or in text.







IsCatalogInMostPopularTable: catalog: 48911, numindb: 14
Update: records affected: 1



GetName: 48911 YAM-2

Hit Count: updated at: Sun, 26 Sep 2021 16:55:46 GMT